Regional Weather Roundup
Issued by NWS

Home | Current Version | Previous Version | Graphics & Text | Print | Product List | Glossary Off
Versions: 1 2 3 4 5 6 7 8 9 10 11 12 13 14 15 16 17 18 19 20 21 22 23 24 25 26 27 28 29 30 31 32 33 34 35 36 37 38 39 40 41 42 43 44 45 46 47 48 49 50

000
ASUS44 KFWD 111715
RWRTX
NORTH TEXAS HOURLY WEATHER ROUNDUP
NATIONAL WEATHER SERVICE FORT WORTH TX
1100 AM CST MON DEC 11 2017

NOTE: "FAIR" INDICATES FEW OR NO CLOUDS BELOW 12,000 FEET WITH NO
SIGNIFICANT WEATHER AND/OR OBSTRUCTIONS TO VISIBILITY.

TXZ118-119-111800-
DALLAS/FORT WORTH METROPLEX

CITY           SKY/WX    TMP DP  RH WIND       PRES   REMARKS
DFW AIRPORT    PTSUNNY   68  20  16 SW10      30.21F
DALLAS LOVE    PTSUNNY   63  23  21 W8        30.23F
FTW MEACHAM    SUNNY     70  22  16 W12       30.23F
DAL-EXECUTIVE  SUNNY     64  22  20 W12       30.22F
FTW-ALLIANCE   MOSUNNY   68  20  16 W14       30.21F
FTW-NAS-JRB    MOSUNNY   70  18  13 W16       30.23F
FTW-SPINKS     SUNNY     68  19  15 W10       30.25F
ARLINGTON      SUNNY     65  20  17 W8        30.24F
GRAND PRAIRIE  SUNNY     57  21  24 SW7       30.28S
ADDISON        SUNNY     61  23  23 SW5       30.23F
MESQUITE       SUNNY     64  19  17 W9G15     30.24S
LANCASTER      SUNNY     68  18  15 W13G21    30.25F
$$

TXZ091>094-102>105-117-120-121-131>134-111800-
NORTH CENTRAL TEXAS

CITY           SKY/WX    TMP DP  RH WIND       PRES   REMARKS
SHRMAN/DENISON SUNNY     60  22  23 W8        30.21F
GAINESVILLE    SUNNY     65  15  14 W12       30.21F
BOWIE          SUNNY     62  20  19 W8        30.22F
BRIDGEPORT     SUNNY     66  22  19 W14G23    30.25F
DECATUR        SUNNY     62  21  20 W8        30.22F
DENTON         SUNNY     66  22  18 W16       30.21F
MCKINNEY       SUNNY     64  25  22 W13       30.21F
BONHAM         SUNNY     66  21  18 W10       30.20F
GREENVILLE     SUNNY    N/A N/A N/A W10       30.22F
ROCKWALL       SUNNY     64  28  26 W13       30.23F
TERRELL        SUNNY     65  23  20 W9        30.23F
WAXAHACHIE     SUNNY     66  28  23 W9        30.25F
CLEBURNE       SUNNY     64  23  20 W10       30.27F
GRANBURY       SUNNY     62  28  27 CALM      30.27F
$$

TXZ083>090-098>101-113>116-127>130-139>142-154-155-111800-
WESTERN NORTH TEXAS

CITY           SKY/WX    TMP DP  RH WIND       PRES   REMARKS
WICHITA FALLS  MOSUNNY   60  18  19 W13       30.21F
WF-KICKAPOO    SUNNY     58  19  21 W9        30.25F
VERNON         SUNNY     61   8  12 NW8       30.23F
ABILENE        SUNNY     64  22  20 SW8       30.29F
ABILENE-DYESS  SUNNY     66  26  22 W3        30.28F
GRAHAM           N/A     60  23  24 W10       30.25F
BRECKENRIDGE   SUNNY     65  22  19 W6        30.27F
CISCO          SUNNY     68  19  15 W9G18     30.29F
EASTLAND       SUNNY     68  20  15 W6        30.27F
RANGER         SUNNY     67  22  18 W8        30.27F
MINERAL WELLS  SUNNY     64  20  18 W7        30.24F
STEPHENVILLE   SUNNY     68  19  15 W10       30.30F
COMANCHE       SUNNY     68  26  20 W9        30.30F
COLEMAN        SUNNY     67  21  17 W7        30.30F
$$

TXZ143>147-156>162-174-175-111800-
CENTRAL TEXAS

CITY           SKY/WX    TMP DP  RH WIND       PRES   REMARKS
WACO           SUNNY     63  28  26 W6        30.28F
WACO-TSTC      SUNNY     63  27  25 W5        30.28F
WACO-MCGREGOR  SUNNY     65  37  35 CALM      30.28F
HILLSBORO      SUNNY     66  28  23 W10       30.26F
CORSICANA      SUNNY     64  27  24 W7        30.27F
MEXIA          SUNNY     64  27  25 W7        30.27F
HEARNE         CLOUDY    54  36  51 W3        30.31F
CAMERON        CLOUDY    58  34  40 W5        30.31S
TEMPLE         SUNNY     64  32  30 W9        30.30F
KILLEEN        SUNNY     61  29  30 SW7       30.29F
KILLEEN-SKYLRK SUNNY     64  29  26 W6        30.31S
FORT HOOD      SUNNY     62  28  28 W10       30.27S
GATESVILLE     SUNNY     66  28  24 CALM      30.31S
HAMILTON       SUNNY     68  27  21 W9        30.30F
LAMPASAS       CLOUDY    61  26  27 W8        30.30F
$$

TXZ095>097-106>112-122>126-135>138-148>153-164>167-111800-
EAST TEXAS

CITY           SKY/WX    TMP DP  RH WIND       PRES   REMARKS
PARIS          SUNNY     62  26  25 SW7       30.19F
SULPHUR SPRNGS SUNNY     64  26  23 W6        30.23F
MOUNT PLEASANT SUNNY     62  30  30 SW6       30.22F
GILMER         SUNNY     62  26  26 SW6       30.23F
MINEOLA        SUNNY     61  28  29 W6        30.23F
TYLER          SUNNY     60  29  30 SW6       30.24F
LONGVIEW       SUNNY     66  31  27 W8        30.22F
MARSHALL       SUNNY     62  35  36 S3        30.24F
ATHENS         SUNNY     61  23  23 W5        30.24F
PALESTINE      SUNNY     59  32  36 W3        30.28F
JACKSONVILLE   SUNNY     66  30  26 W3        30.26F
HENDERSON      SUNNY     62  31  31 SW6       30.25F
CENTER         SUNNY     62  31  30 MISG      30.25F
NACOGDOCHES    SUNNY     60  36  40 SW3       30.26F
LUFKIN         SUNNY     60  37  42 W5        30.26F
$$

SUPPLEMENTAL OBSERVATIONS (NWS FORT WORTH AREA)

CITY           SKY/WX    TMP DP  RH WIND       PRES   REMARKS
$$

SUPPLEMENTAL OBSERVATIONS (NWS NORMAN AREA)

CITY           SKY/WX    TMP DP  RH WIND       PRES   REMARKS
GOODLETT         N/A     62  15  16 W12       30.23F
ODELL            N/A     60  17  19 NW10      30.24S
CROWELL          N/A     65  20  18 W6        30.24F
KNOX CITY        N/A     63  15  15 SW9       30.26F
SEYMOUR          N/A     62  18  18 SW12      30.24F
$$

SUPPLEMENTAL OBSERVATIONS (NWS SAN ANGELO AREA)

CITY           SKY/WX    TMP DP  RH WIND       PRES   REMARKS
WEINERT          N/A     62  22  22 W12       30.26F
HASKELL          N/A     60  21  22 SW14      30.27F
THROCKMORTON     N/A     59  29  32 SW16      30.27F
STAMFORD         N/A     62  26  25 W13       30.28F
CLYDE            N/A     67  21  17 W9        30.30F
$$

SUPPLEMENTAL OBSERVATIONS (NWS SHREVEPORT AREA)

CITY           SKY/WX    TMP DP  RH WIND       PRES   REMARKS
$$

SUPPLEMENTAL OBSERVATIONS ARE A COLLECTION OF AUTOMATED INSTRUMENTS
THAT ARE MAINTAINED BY A VARIETY OF FEDERAL AND STATE AGENCIES.
CERTAIN ELEMENTS...SUCH AS HUMIDITY VALUES AND SUSTAINED WIND
SPEEDS...MAY BE APPROXIMATED.




USA.gov is the U.S. government's official web portal to all federal, state and local government web resources and services.